Regional Weather Roundup
Issued by NWS

Home | Current Version | Previous Version | Text Only | Print | Product List | Glossary On
Versions: 1 2 3 4 5 6 7 8 9 10 11 12 13 14 15 16 17 18 19 20 21 22 23 24 25 26 27 28 29 30 31 32 33 34 35 36 37 38 39 40 41 42 43 44 45 46 47 48 49 50
000
ASUS43 KMKX 240621
RWRWI

WISCONSIN REGIONAL WEATHER ROUNDUP
NATIONAL WEATHER SERVICE MILWAUKEE/SULLIVAN WI
100 AM CDT THU APR 24 2014

NOTE: "FAIR" INDICATES FEW OR NO CLOUDS BELOW 12,000 FEET WITH NO
SIGNIFICANT WEATHER AND/OR OBSTRUCTIONS TO VISIBILITY.

WIZ001-002-006>008-014>016-023>028-240700-
NORTHWEST WISCONSIN

CITY           SKY/WX    TMP DP  RH WIND       PRES   REMARKS
SUPERIOR ARPT  LGT RAIN  33  33  99 CALM      30.04S
6HR MIN TEMP:  33; 6HR MAX TEMP:  36; 6HR PCP:  0.12;

ASHLAND        LGT RAIN  39  36  89 S3        30.06S
6HR MIN TEMP:  35; 6HR MAX TEMP:  40; 6HR PCP:  0.01;

HAYWARD        LGT RAIN  37  35  92 SE6       30.02S WCI  32
6HR MIN TEMP:  37; 6HR MAX TEMP:  49; 6HR PCP:  0.12;

SIREN          LGT RAIN  39  38  96 E7        29.98F WCI  34
6HR MIN TEMP:  38; 6HR MAX TEMP:  49; 6HR PCP:  0.28;

RICE LAKE      CLOUDY    39  37  93 E13G21    30.01F WCI  32
6HR MIN TEMP:  38; 6HR MAX TEMP:  49; 6HR PCP:  0.29;

LADYSMITH      LGT RAIN  38  37  92 E9        30.05S WCI  32
6HR MIN TEMP:  38; 6HR MAX TEMP:  49; 6HR PCP:  0.12;

EAU CLAIRE     CLOUDY    41  39  93 E13       30.00S
6HR MIN TEMP:  41; 6HR MAX TEMP:  43; 6HR PCP:  0.20;

MENOMONIE      CLOUDY    42  39  90 E10G16    29.99R
6HR MIN TEMP:  41; 6HR MAX TEMP:  43; 6HR PCP:  0.05;

NEW RICHMOND   CLOUDY    42  38  87 SE9G18    29.96S
6HR MIN TEMP:  40; 6HR MAX TEMP:  42; 6HR PCP:  0.07;

OSCEOLA        CLOUDY    42  40  93 E15       29.96F
6HR MIN TEMP:  40; 6HR MAX TEMP:  42; 6HR PCP:  0.11;

$$

WIZ003>005-009-010-017-018-240700-
NORTH CENTRAL WISCONSIN

CITY           SKY/WX    TMP DP  RH WIND       PRES   REMARKS
WOODRUFF       CLOUDY    42  17  36 S5        30.05S
6HR MIN TEMP:  42; 6HR MAX TEMP:  52;

RHINELANDER    CLOUDY    40  19  43 SE6       30.07R
6HR MIN TEMP:  40; 6HR MAX TEMP:  49;

EAGLE RIVER    CLOUDY    40  12  32 SE3       30.06S
6HR MIN TEMP:  40; 6HR MAX TEMP:  50;

LAND O LAKES   CLOUDY    40  10  28 SE5       30.07S
6HR MIN TEMP:  40; 6HR MAX TEMP:  51;

PHILLIPS       LGT RAIN  37  34  89 SE9       30.05R WCI  30
6HR MIN TEMP:  37; 6HR MAX TEMP:  48; 6HR PCP:  0.04;

TOMAHAWK       RAIN      36  31  82 SE5       30.08R WCI  32
6HR MIN TEMP:  36; 6HR MAX TEMP:  48;

MEDFORD        DRIZZLE   38  34  86 E6        30.05R WCI  33
6HR MIN TEMP:  38; 6HR MAX TEMP:  46; 6HR PCP:  0.03;

MERRILL        LGT RAIN  37  31  77 SE3       30.08R
6HR MIN TEMP:  37; 6HR MAX TEMP:  48;

$$

WIZ029-030-035-036-043>047-240700-
CENTRAL WISCONSIN

CITY           SKY/WX    TMP DP  RH WIND       PRES   REMARKS
WAUSAU         LGT RAIN  40  25  55 E9        30.06R WCI  34
6HR MIN TEMP:  39; 6HR MAX TEMP:  48; 6HR PCP:  0.01;

MOSINEE        CLOUDY    41  18  38 E7        30.07R
MARSHFIELD     LGT RAIN  38  31  76 SE10      30.06R WCI  31
6HR MIN TEMP:  38; 6HR MAX TEMP:  48; 6HR PCP:  0.02;

STEVENS POINT  CLOUDY    40  16  37 E7        30.07R
6HR MIN TEMP:  40; 6HR MAX TEMP:  46;

WAUPACA        CLOUDY    43   9  24 E5        30.09S
WAUTOMA        LGT RAIN  39  28  65 CALM      30.09R
6HR MIN TEMP:  39; 6HR MAX TEMP:  51; 6HR PCP:  0.02;

WISC RAPIDS    LGT RAIN  37  33  85 SE5       30.09R WCI  33
6HR MIN TEMP:  37; 6HR MAX TEMP:  49; 6HR PCP:  0.08;

CAMP DOUGLAS   LGT RAIN  39  39  99 E13       30.07R WCI  31
6HR MIN TEMP:  39; 6HR MAX TEMP:  45; 6HR PCP:  0.14;

$$

WIZ011>013-019>022-031-037>040-048>050-240700-
NORTHEAST WISCONSIN

CITY           SKY/WX    TMP DP  RH WIND       PRES   REMARKS
ANTIGO         CLOUDY    38  15  39 S7        30.08R WCI  32
6HR MIN TEMP:  38; 6HR MAX TEMP:  44;

STURGEON BAY   FAIR      39  16  38 E7        30.11F WCI  34
6HR MIN TEMP:  37; 6HR MAX TEMP:  41;

GREEN BAY      CLOUDY    41  20  43 E6        30.10F
6HR MIN TEMP:  41; 6HR MAX TEMP:  45;

MANITOWOC      CLOUDY    39  21  48 NE3       30.10F
6HR MIN TEMP:  39; 6HR MAX TEMP:  42;

APPLETON       CLOUDY    41  12  30 E6        30.09R
CLINTONVILLE   CLOUDY    41  14  33 CALM      30.09S
OSHKOSH        CLOUDY    41  18  39 E8        30.08S
6HR MIN TEMP:  41; 6HR MAX TEMP:  46; 6HR PCP: TRACE;

$$

WIZ032>034-041-042-053>061-240700-
SOUTHWEST WISCONSIN

CITY           SKY/WX    TMP DP  RH WIND       PRES   REMARKS
LA CROSSE      LGT RAIN  43  38  82 E10       30.01R
6HR MIN TEMP:  43; 6HR MAX TEMP:  46; 6HR PCP:  0.14;

SPARTA         RAIN      41  39  94 E8        30.05R
6HR MIN TEMP:  41; 6HR MAX TEMP:  43; 6HR PCP:  0.12;

VIROQUA        CLOUDY    39  36  87 E18       29.99F WCI  30
6HR MIN TEMP:  39; 6HR MAX TEMP:  44; 6HR PCP:  0.05;

BOSCOBEL       CLOUDY    45  34  65 E9        30.02R
6HR MIN TEMP:  45; 6HR MAX TEMP:  54; 6HR PCP:  0.03;

PRAIRIE DU CHI LGT RAIN  44  35  69 E7        30.01R
6HR MIN TEMP:  44; 6HR MAX TEMP:  50; 6HR PCP:  0.07;

PLATTEVILLE    MOCLDY    42  35  77 E18G24    30.00F
6HR MIN TEMP:  42; 6HR MAX TEMP:  50; 6HR PCP:  0.05;

$$

WIZ056-057-062-063-064-067-068-240700-
SOUTH CENTRAL WISCONSIN

CITY           SKY/WX    TMP DP  RH WIND       PRES   REMARKS
BARABOO/DELLS  DRIZZLE   37  34  87 E3        30.09R
6HR MIN TEMP:  37; 6HR MAX TEMP:  46; 6HR PCP:  0.08;

LONE ROCK      LGT RAIN  41  36  82 E15       30.06R
6HR MIN TEMP:  41; 6HR MAX TEMP:  52; 6HR PCP:  0.08;

WATERTOWN      LGT RAIN  36  26  67 E5        30.07R WCI  32
6HR MIN TEMP:  36; 6HR MAX TEMP:  47; 6HR PCP:  0.02;

MADISON        CLOUDY    39  30  70 MISG      30.08R
6HR MIN TEMP:  39; 6HR MAX TEMP:  50; 6HR PCP:  0.14;

MIDDLETON      CLOUDY    39  30  70 SE8       30.09R WCI  33
6HR MIN TEMP:  39; 6HR MAX TEMP:  52; 6HR PCP:  0.07;

MONROE         CLOUDY    39  37  91 NE10      30.04R WCI  32
6HR MIN TEMP:  39; 6HR MAX TEMP:  51; 6HR PCP:  0.04;

JANESVILLE     CLOUDY    39  30  70 E10       30.05F WCI  32
$$

WIZ051-052-058>065-066-070>072-240700-
SOUTHEAST WISCONSIN

CITY           SKY/WX    TMP DP  RH WIND       PRES   REMARKS
MILWAUKEE      LGT RAIN  38  23  55 NE7       30.08F WCI  33
6HR MIN TEMP:  38; 6HR MAX TEMP:  40; 6HR PCP: TRACE;

WAUKESHA       RAIN      36  21  55 NE3       30.09R
MILWAUKEE/TIMM CLOUDY    37  10  32 E3        30.09S
RACINE         LGT RAIN  37  27  67 E6        30.10R WCI  32
6HR MIN TEMP:  37; 6HR MAX TEMP:  40; 6HR PCP: TRACE;

BURLINGTON     MIX PCPN  34  28  77 CALM      30.09R
6HR MIN TEMP:  34; 6HR MAX TEMP:  43; 6HR PCP:  0.03;

KENOSHA        LGT RAIN  36  28  73 SE6       30.09R WCI  31
6HR MIN TEMP:  36; 6HR MAX TEMP:  42; 6HR PCP:  0.03;

FOND DU LAC    CLOUDY    41   9  26 E3        30.08R
6HR MIN TEMP:  41; 6HR MAX TEMP:  47;

SHEBOYGAN      CLOUDY    38  22  52 NE6       30.09S WCI  33
6HR MIN TEMP:  37; 6HR MAX TEMP:  41;

WEST BEND      CLOUDY    37  12  35 NE6       30.07S WCI  33
JUNEAU         RAIN      37  20  50 SE3       30.09R
6HR MIN TEMP:  37; 6HR MAX TEMP:  47; 6HR PCP:  0.01;

$$

LSZ147-162-240700-
LAKE SUPERIOR

STATION/POSITION TIME  TEMP    WIND        PRES    WAVE
                       AIR SEA DIR/SP/G            HT/PER
                 (UTC) (F)     (DEG/KT/KT) (MB)    (FT/S)
DEVILS ISLAND    0600   35     230/  3/  3 1018.7R
PORT WING        0500   33      CALM  /  2 1017.9S
SAXON HARBOR     0500           CALM  /  3 1017.3R
$$

LMZ867-665-643>646-240700-
LAKE MICHIGAN

STATION/POSITION TIME  TEMP    WIND        PRES    WAVE
                       AIR SEA DIR/SP/G            HT/PER
                 (UTC) (F)     (DEG/KT/KT) (MB)    (FT/S)
NORTHPORT PIER   0500   35        CALM     1020.0S
SISTER BAY       0523   34        CALM       N/A
KEWAUNEE LAKESHO 0500   38      30/  4/  6 1020.4R
SHEBOYGAN LAKESH 0600   39      10/  8/  9 1019.9F
PORT WASHINGTON  0540   40      50/  7/  9 1019.3S
MILWAUKEE LAKESH 0600   38      30/  7/  9   N/A
KENOSHA   LAKESH 0600   37      80/  4/  5   N/A
$$

TC  - TEMPERATURE IN CELSIUS
VSB - VISIBILITY IN STATUTE MILES
WCI - WIND CHILL INDEX
HX  - HEAT INDEX




USA.gov is the U.S. government's official web portal to all federal, state and local government web resources and services.